Weather in Bakchar

Russia / Tomsk District     57°01′18″N   82°04′23″E
temp.,
°C
wind,
m/s
gust,
m/s
humid.,
%
clouds,
%
prec.,
mm/h
press.,
hPa
HPBL,
m
13 june, sun
sun1301:00+13wnw2470100 0.0 101694
04:00+13wnw2374100 0.0 101565
07:00+12wsw2486100 0.1 1015124
10:00+12w3999100 1.6 1014495
13:00+16nw3791100 2.1 1014778
16:00+17n388796 1.3 1014916
19:00+19n576119 1.8 10151260
22:00+15n49760 0.0 1017533
14 june, mon
mon1401:00+9n24960 0.0 101978
04:00+8nnw269627 0.0 1020109
07:00+10n25815 0.0 1021172
10:00+17n23515 0.0 1021950
13:00+20nne34385 0.0 10211516
16:00+23n24365 0.0 10201846
19:00+23nnw145199 0.0 10191641
22:00+16wsw117479 0.0 101911
15 june, tue
tue1501:00+13wsw118041 0.0 101911
04:00+13wsw2282100 0.0 101821
07:00+15wsw138185 0.0 1018115
10:00+22wsw35578 0.1 1017626
13:00+26w464176 0.1 10152209
16:00+27w563994 0.0 10132530
19:00+24nw3652100 0.0 1013750
22:00+16ssw3788100 0.4 1013136
16 june, wed
wed1601:00+16sw3109531 1.9 1012204
04:00+14wsw279817 0.0 1011138
07:00+16sw2595100 0.0 1010150
10:00+21wsw3569100 0.0 1011752
13:00+24w465530 0.2 10101662
16:00+20wsw489299 1.0 1009290
19:00+22sw368172 2.9 1008294
22:00+19sw3892100 0.8 1008132
17 june, thu
thu1701:00+17wsw239774 1.8 100856
04:00+15w239969 1.8 100865
07:00+17w139635 2.4 1008118
10:00+22nw12695 0.0 1007592
13:00+25wsw125829 0.6 10061429
16:00+25wnw226295 1.3 10051205
19:00+22n238821 3.2 1004220
22:00+19ene009183 1.4 100411